Location: *
(90.0000°N, 180.0000°W)
Time: 07:05:18
(UTC+01:00)

Okean O Rocket - Visible Passes

Search period start: 25 February 2018 00:00
Search period end: 07 March 2018 00:00
Orbit: 623 x 645 km, 98.1° (Epoch: 24 February)

Date Brightness Start Highest point End Pass type
(mag) Time Alt. Az. Time Alt. Az. Time Alt. Az.
25 Feb 3.6 00:00:01 10° SE 00:03:57 30° SSW 00:07:54 10° W visible
25 Feb 3.6 01:37:28 10° SSE 01:41:24 30° SW 01:45:22 10° WNW visible
25 Feb 3.6 03:14:56 10° S 03:18:51 30° WSW 03:22:50 10° NW visible
25 Feb 3.6 04:52:23 10° SSW 04:56:19 30° W 05:00:16 10° NNW visible
25 Feb 3.6 06:29:50 10° SW 06:33:47 30° WNW 06:37:45 10° N visible
25 Feb 3.6 08:07:18 10° WSW 08:11:14 30° NW 08:15:12 10° NNE visible
25 Feb 3.6 09:44:45 10° W 09:48:42 30° NNW 09:52:39 10° NE visible
25 Feb 3.6 11:22:12 10° NW 11:26:09 30° N 11:30:07 10° ENE visible
25 Feb 3.6 12:59:40 10° NNW 13:03:36 30° NNE 13:07:34 10° E visible
25 Feb 3.6 14:37:08 10° N 14:41:04 30° NE 14:45:02 10° ESE visible
25 Feb 3.6 16:14:35 10° NNE 16:18:31 30° E 16:22:29 10° SE visible
25 Feb 3.6 17:52:02 10° NE 17:55:59 30° ESE 17:59:57 10° SSE visible
25 Feb 3.6 19:29:29 10° ENE 19:33:26 30° SE 19:37:24 10° S visible
25 Feb 3.6 21:06:57 10° E 21:10:54 30° SSE 21:14:51 10° SW visible
25 Feb 3.6 22:44:24 10° ESE 22:48:21 30° S 22:52:19 10° WSW visible
26 Feb 3.6 00:21:52 10° SE 00:25:49 30° SSW 00:29:46 10° W visible
26 Feb 3.6 01:59:19 10° SSE 02:03:16 30° SW 02:07:13 10° WNW visible
26 Feb 3.6 03:36:47 10° S 03:40:43 30° WSW 03:44:41 10° NW visible
26 Feb 3.6 05:14:14 10° SSW 05:18:11 30° W 05:22:09 10° NNW visible
26 Feb 3.6 06:51:42 10° WSW 06:55:38 30° WNW 06:59:36 10° N visible
26 Feb 3.6 08:29:09 10° W 08:33:06 30° NW 08:37:04 10° NNE visible
26 Feb 3.6 10:06:37 10° WNW 10:10:33 30° NNW 10:14:31 10° NE visible
26 Feb 3.6 11:44:04 10° NW 11:48:01 30° NNE 11:51:58 10° ENE visible
26 Feb 3.6 13:21:31 10° NNW 13:25:28 30° NE 13:29:26 10° E visible
26 Feb 3.6 14:58:59 10° N 15:02:56 30° ENE 15:06:53 10° ESE visible
26 Feb 3.6 16:36:26 10° NNE 16:40:23 30° E 16:44:21 10° SSE visible
26 Feb 3.6 18:13:54 10° NE 18:17:50 30° ESE 18:21:48 10° S visible
26 Feb 3.6 19:51:21 10° ENE 19:55:18 30° SE 19:59:16 10° SSW visible
26 Feb 3.6 21:28:48 10° E 21:32:45 30° SSE 21:36:43 10° SW visible
26 Feb 3.6 23:06:16 10° ESE 23:10:12 30° S 23:14:11 10° WSW visible
27 Feb 3.6 00:43:43 10° SE 00:47:40 30° SSW 00:51:38 10° W visible
27 Feb 3.6 02:21:11 10° S 02:25:07 30° SW 02:29:06 10° WNW visible
27 Feb 3.6 03:58:38 10° SSW 04:02:35 30° WSW 04:06:33 10° NW visible
27 Feb 3.6 05:36:06 10° SW 05:40:02 30° W 05:44:01 10° NNW visible
27 Feb 3.6 07:13:33 10° WSW 07:17:29 30° NW 07:21:28 10° N visible
27 Feb 3.6 08:51:01 10° W 08:54:57 30° NNW 08:58:55 10° NNE visible
27 Feb 3.6 10:28:28 10° WNW 10:32:24 30° N 10:36:22 10° NE visible
27 Feb 3.6 12:05:55 10° NW 12:09:52 30° NNE 12:13:50 10° E visible
27 Feb 3.6 13:43:23 10° NNW 13:47:19 30° NE 13:51:17 10° ESE visible
27 Feb 3.6 15:20:50 10° N 15:24:47 30° ENE 15:28:45 10° SE visible
27 Feb 3.6 16:58:18 10° NNE 17:02:14 30° E 17:06:12 10° SSE visible
27 Feb 3.6 18:35:45 10° NE 18:39:42 30° ESE 18:43:40 10° S visible
27 Feb 3.6 20:13:12 10° ENE 20:17:09 30° SE 20:21:07 10° SSW visible
27 Feb 3.6 21:50:40 10° ESE 21:54:37 30° SSE 21:58:35 10° SW visible
27 Feb 3.6 23:28:07 10° SE 23:32:04 30° S 23:36:02 10° WSW visible
28 Feb 3.6 01:05:35 10° SSE 01:09:32 30° SSW 01:13:30 10° W visible
28 Feb 3.6 02:43:02 10° S 02:46:59 30° WSW 02:50:57 10° WNW visible
28 Feb 3.6 04:20:30 10° SSW 04:24:27 30° W 04:28:25 10° NW visible
28 Feb 3.6 05:57:57 10° SW 06:01:54 30° WNW 06:05:52 10° NNW visible
28 Feb 3.6 07:35:24 10° WSW 07:39:22 30° NW 07:43:20 10° NNE visible
28 Feb 3.6 09:12:52 10° W 09:16:49 30° NNW 09:20:47 10° NE visible
28 Feb 3.6 10:50:19 10° WNW 10:54:17 30° N 10:58:15 10° ENE visible
28 Feb 3.6 12:27:47 10° NW 12:31:44 30° NNE 12:35:42 10° E visible
28 Feb 3.6 14:05:14 10° NNW 14:09:11 30° NE 14:13:10 10° ESE visible
28 Feb 3.6 15:42:41 10° N 15:46:39 30° ENE 15:50:37 10° SE visible
28 Feb 3.6 17:20:09 10° NE 17:24:06 30° E 17:28:04 10° SSE visible
28 Feb 3.6 18:57:36 10° ENE 19:01:34 30° ESE 19:05:31 10° S visible
28 Feb 3.6 20:35:03 10° E 20:39:01 30° SE 20:42:59 10° SSW visible
28 Feb 3.6 22:12:31 10° ESE 22:16:28 30° S 22:20:26 10° SW visible
28 Feb 3.6 23:49:58 10° SE 23:53:56 30° SSW 23:57:54 10° WSW visible
01 Mar 3.6 01:27:26 10° SSE 01:31:23 30° SW 01:35:22 10° W visible
01 Mar 3.6 03:04:53 10° S 03:08:51 30° WSW 03:12:50 10° NW visible
01 Mar 3.6 04:42:21 10° SSW 04:46:18 30° W 04:50:17 10° NNW visible
01 Mar 3.7 06:19:48 10° SW 06:23:46 30° WNW 06:27:44 10° N visible
01 Mar 3.6 07:57:16 10° WSW 08:01:13 30° NW 08:05:12 10° NNE visible
01 Mar 3.7 09:34:43 10° W 09:38:40 30° NNW 09:42:39 10° NE visible
01 Mar 3.7 11:12:11 10° WNW 11:16:08 30° N 11:20:06 10° ENE visible
01 Mar 3.7 12:49:38 10° NW 12:53:35 30° NNE 12:57:34 10° E visible
01 Mar 3.7 14:27:05 10° N 14:31:03 30° NE 14:35:01 10° ESE visible
01 Mar 3.7 16:04:33 10° NNE 16:08:30 30° ENE 16:12:29 10° SE visible
01 Mar 3.7 17:42:00 10° NE 17:45:58 30° ESE 17:49:56 10° SSE visible
01 Mar 3.7 19:19:27 10° ENE 19:23:25 30° SE 19:27:24 10° S visible
01 Mar 3.7 20:56:55 10° E 21:00:53 30° SSE 21:04:51 10° SSW visible
01 Mar 3.7 22:34:22 10° ESE 22:38:20 30° S 22:42:19 10° WSW visible
02 Mar 3.7 00:11:50 10° SE 00:15:48 30° SSW 00:19:46 10° W visible
02 Mar 3.7 01:49:17 10° SSE 01:53:15 30° SW 01:57:13 10° WNW visible
02 Mar 3.7 03:26:45 10° S 03:30:42 30° WSW 03:34:41 10° NW visible
02 Mar 3.7 05:04:13 10° SSW 05:08:10 30° W 05:12:08 10° NNW visible
02 Mar 3.7 06:41:40 10° SW 06:45:37 30° WNW 06:49:36 10° N visible
02 Mar 3.7 08:19:07 10° WSW 08:23:05 30° NW 08:27:03 10° NNE visible
02 Mar 3.7 09:56:35 10° WNW 10:00:32 30° NNW 10:04:31 10° NE visible
02 Mar 3.7 11:34:02 10° NW 11:38:00 30° N 11:41:58 10° ENE visible
02 Mar 3.7 13:11:30 10° NNW 13:15:27 30° NE 13:19:26 10° E visible
02 Mar 3.7 14:48:57 10° N 14:52:55 30° ENE 14:56:53 10° ESE visible
02 Mar 3.7 16:26:24 10° NNE 16:30:22 30° E 16:34:21 10° SE visible
02 Mar 3.7 18:03:52 10° NE 18:07:49 30° ESE 18:11:48 10° S visible
02 Mar 3.7 19:41:19 10° ENE 19:45:16 30° SE 19:49:16 10° SSW visible
02 Mar 3.7 21:18:46 10° E 21:22:44 30° SSE 21:26:43 10° SW visible
02 Mar 3.7 22:56:14 10° ESE 23:00:11 30° S 23:04:10 10° WSW visible
03 Mar 3.7 00:33:41 10° SE 00:37:39 30° SSW 00:41:38 10° W visible
03 Mar 3.7 02:11:09 10° SSE 02:15:06 30° SW 02:19:05 10° WNW visible
03 Mar 3.7 03:48:36 10° S 03:52:34 30° WSW 03:56:32 10° NW visible
03 Mar 3.7 05:26:04 10° SW 05:30:01 30° W 05:34:00 10° NNW visible
03 Mar 3.7 07:03:31 10° WSW 07:07:28 30° WNW 07:11:27 10° N visible
03 Mar 3.7 08:40:59 10° W 08:44:56 30° NNW 08:48:55 10° NNE visible
03 Mar 3.7 10:18:26 10° WNW 10:22:23 30° N 10:26:22 10° NE visible
03 Mar 3.7 11:55:53 10° NW 11:59:51 30° NNE 12:03:50 10° ENE visible
03 Mar 3.7 13:33:21 10° NNW 13:37:18 30° NE 13:41:17 10° ESE visible
03 Mar 3.7 15:10:48 10° N 15:14:46 30° ENE 15:18:45 10° SE visible
03 Mar 3.7 16:48:16 10° NNE 16:52:13 30° E 16:56:12 10° SSE visible
03 Mar 3.7 18:25:43 10° NE 18:29:41 30° ESE 18:33:40 10° S visible
03 Mar 3.7 20:03:10 10° ENE 20:07:08 30° SE 20:11:07 10° SSW visible
03 Mar 3.7 21:40:38 10° E 21:44:36 30° SSE 21:48:35 10° SW visible
03 Mar 3.7 23:18:05 10° ESE 23:22:03 30° S 23:26:02 10° WSW visible
04 Mar 3.7 00:55:33 10° SSE 00:59:31 30° SSW 01:03:30 10° W visible
04 Mar 3.7 02:33:00 10° S 02:36:58 30° SW 02:40:57 10° WNW visible
04 Mar 3.7 04:10:28 10° SSW 04:14:26 30° W 04:18:25 10° NW visible
04 Mar 3.7 05:47:55 10° SW 05:51:53 30° WNW 05:55:51 10° NNW visible
04 Mar 3.7 07:25:22 10° WSW 07:29:21 30° NW 07:33:19 10° N visible
04 Mar 3.7 09:02:50 10° W 09:06:48 30° NNW 09:10:46 10° NE visible
04 Mar 3.7 10:40:17 10° WNW 10:44:16 30° N 10:48:14 10° ENE visible
04 Mar 3.7 12:17:45 10° NW 12:21:43 30° NNE 12:25:41 10° E visible
04 Mar 3.7 13:55:12 10° NNW 13:59:10 30° NE 14:03:09 10° ESE visible
04 Mar 3.7 15:32:39 10° N 15:36:38 30° ENE 15:40:36 10° SE visible
04 Mar 3.7 17:10:07 10° NNE 17:14:05 30° E 17:18:04 10° SSE visible
04 Mar 3.7 18:47:34 10° NE 18:51:32 30° ESE 18:55:31 10° S visible
04 Mar 3.7 20:25:02 10° E 20:28:59 30° SE 20:32:59 10° SSW visible
04 Mar 3.7 22:02:29 10° ESE 22:06:27 30° SSE 22:10:26 10° SW visible
04 Mar 3.7 23:39:57 10° SE 23:43:54 30° S 23:47:53 10° WSW visible
05 Mar 3.7 01:17:24 10° SSE 01:21:22 30° SW 01:25:21 10° W visible
05 Mar 3.7 02:54:51 10° S 02:58:49 30° WSW 03:02:49 10° WNW visible
05 Mar 3.7 04:32:19 10° SSW 04:36:17 30° W 04:40:16 10° NNW visible
05 Mar 3.7 06:09:46 10° SW 06:13:44 30° WNW 06:17:44 10° N visible
05 Mar 3.7 07:47:14 10° WSW 07:51:12 30° NW 07:55:11 10° NNE visible
05 Mar 3.7 09:24:41 10° W 09:28:39 30° NNW 09:32:39 10° NE visible
